| time (UTC) | temp C | wind direction | speed KPH | gust KPH | rain 1hr cm | rain 24hr cm | rain mn cm | humidity % | barometer mb |
| 20260906063805 | 20 | 335 | 3.2 | 8.0 | 0.00 | 0.00 | 0.00 | 84 | 1023.3 |
| 20260906063304 | 20 | 331 | 4.8 | 8.0 | 0.00 | 0.00 | 0.00 | 85 | 1023.2 |
| 20260906062804 | 20 | 327 | 4.8 | 11.3 | 0.00 | 0.00 | 0.00 | 86 | 1023.1 |
| 20260906061805 | 19 | 320 | 3.2 | 11.3 | 0.00 | 0.00 | 0.00 | 88 | 1023.2 |
| 20260906060805 | 17 | 318 | 4.8 | 4.8 | 0.00 | 0.00 | 0.00 | 92 | 1023.1 |
| 20260906060304 | 17 | 56 | 0.0 | 4.8 | 0.00 | 0.00 | 0.00 | 93 | 1023.1 |
| 20260906055804 | 17 | 45 | 1.6 | 4.8 | 0.00 | 0.00 | 0.00 | 93 | 1023.0 |
| 20260906055306 | 17 | 94 | 0.0 | 0.0 | 0.00 | 0.00 | 0.00 | 93 | 1023.0 |
| 20260906054805 | 17 | 94 | 0.0 | 3.2 | 0.00 | 0.00 | 0.00 | 93 | 1022.9 |
| 20260906054304 | 17 | 94 | 0.0 | 4.8 | 0.00 | 0.00 | 0.00 | 93 | 1022.9 |
| 20260906052806 | 16 | 94 | 1.6 | 4.8 | 0.00 | 0.00 | 0.00 | 93 | 1022.8 |
| 20260906052306 | 16 | 94 | 1.6 | 4.8 | 0.00 | 0.00 | 0.00 | 93 | 1022.7 |
| 20260906051805 | 16 | 95 | 1.6 | 4.8 | 0.00 | 0.00 | 0.00 | 93 | 1022.8 |
| 20260906051306 | 16 | 95 | 0.0 | 4.8 | 0.00 | 0.00 | 0.00 | 93 | 1022.7 |
| 20260906050804 | 16 | 95 | 0.0 | 4.8 | 0.00 | 0.00 | 0.00 | 93 | 1022.6 |
| 20260906050305 | 16 | 95 | 1.6 | 4.8 | 0.00 | 0.00 | 0.00 | 93 | 1022.7 |
| 20260906045804 | 16 | 293 | 3.2 | 4.8 | 0.00 | 0.00 | 0.00 | 94 | 1022.6 |
| 20260906045306 | 16 | 79 | 0.0 | 4.8 | 0.00 | 0.00 | 0.00 | 93 | 1022.6 |
| 20260906044804 | 16 | 79 | 0.0 | 4.8 | 0.00 | 0.00 | 0.00 | 94 | 1022.5 |
| 20260906044305 | 16 | 79 | 0.0 | 4.8 | 0.00 | 0.00 | 0.00 | 93 | 1022.5 |
| 20260906043805 | 16 | 80 | 1.6 | 3.2 | 0.00 | 0.00 | 0.00 | 94 | 1022.5 |
| 20260906043305 | 16 | 80 | 0.0 | 3.2 | 0.00 | 0.00 | 0.00 | 93 | 1022.4 |
| 20260906042804 | 16 | 80 | 1.6 | 3.2 | 0.00 | 0.00 | 0.00 | 93 | 1022.4 |
| 20260906042306 | 16 | 80 | 0.0 | 4.8 | 0.00 | 0.00 | 0.00 | 93 | 1022.4 |
| 20260906041805 | 16 | 80 | 1.6 | 4.8 | 0.00 | 0.00 | 0.00 | 93 | 1022.3 |
| 20260906041304 | 16 | 77 | 1.6 | 3.2 | 0.00 | 0.00 | 0.00 | 93 | 1022.2 |
| 20260906040804 | 16 | 64 | 0.0 | 3.2 | 0.00 | 0.00 | 0.00 | 93 | 1022.2 |
| 20260906040305 | 16 | 50 | 1.6 | 3.2 | 0.00 | 0.00 | 0.00 | 94 | 1022.2 |
| 20260906035306 | 16 | 55 | 0.0 | 1.6 | 0.00 | 0.00 | 0.00 | 93 | 1022.1 |
| 20260906034804 | 16 | 53 | 0.0 | 3.2 | 0.00 | 0.00 | 0.00 | 93 | 1022.0 |
| 20260906034304 | 16 | 53 | 0.0 | 4.8 | 0.00 | 0.00 | 0.00 | 93 | 1021.9 |
| 20260906033805 | 16 | 53 | 1.6 | 4.8 | 0.00 | 0.00 | 0.00 | 93 | 1021.9 |
| 20260906033304 | 16 | 53 | 0.0 | 0.0 | 0.00 | 0.00 | 0.00 | 92 | 1021.9 |
| 20260906032804 | 16 | 52 | 0.0 | 0.0 | 0.00 | 0.00 | 0.00 | 93 | 1021.9 |
| 20260906032306 | 16 | 53 | 0.0 | 0.0 | 0.00 | 0.00 | 0.00 | 92 | 1021.9 |
| 20260906031805 | 16 | 56 | 0.0 | 1.6 | 0.00 | 0.00 | 0.00 | 92 | 1021.8 |
| 20260906031304 | 17 | 53 | 0.0 | 1.6 | 0.00 | 0.00 | 0.00 | 93 | 1021.8 |
| 20260906030304 | 17 | 54 | 0.0 | 1.6 | 0.00 | 0.00 | 0.00 | 92 | 1021.7 |
| 20260906025804 | 17 | 54 | 0.0 | 1.6 | 0.00 | 0.00 | 0.00 | 92 | 1021.7 |
| 20260906024804 | 17 | 53 | 1.6 | 3.2 | 0.00 | 0.00 | 0.00 | 92 | 1021.6 |
| 20260906024304 | 17 | 53 | 0.0 | 4.8 | 0.00 | 0.00 | 0.00 | 92 | 1021.6 |
| 20260906023804 | 17 | 52 | 1.6 | 4.8 | 0.00 | 0.00 | 0.00 | 93 | 1021.5 |
| 20260906023304 | 17 | 54 | 0.0 | 1.6 | 0.00 | 0.00 | 0.00 | 92 | 1021.5 |
| 20260906022804 | 17 | 54 | 0.0 | 1.6 | 0.00 | 0.00 | 0.00 | 91 | 1021.4 |
| 20260906022306 | 17 | 55 | 0.0 | 1.6 | 0.00 | 0.00 | 0.00 | 91 | 1021.4 |
| 20260906020805 | 17 | 53 | 0.0 | 3.2 | 0.00 | 0.00 | 0.00 | 91 | 1021.3 |
| 20260906020304 | 17 | 50 | 1.6 | 3.2 | 0.00 | 0.00 | 0.00 | 91 | 1021.4 |
| 20260906015804 | 17 | 311 | 0.0 | 4.8 | 0.00 | 0.00 | 0.00 | 91 | 1021.4 |
| 20260906015306 | 17 | 312 | 0.0 | 4.8 | 0.00 | 0.00 | 0.00 | 90 | 1021.3 |
| 20260906014804 | 17 | 311 | 3.2 | 4.8 | 0.00 | 0.00 | 0.00 | 90 | 1021.4 |
| 20260906014305 | 17 | 312 | 1.6 | 3.2 | 0.00 | 0.00 | 0.00 | 90 | 1021.3 |
| 20260906013804 | 17 | 313 | 1.6 | 3.2 | 0.00 | 0.00 | 0.00 | 90 | 1021.3 |
| 20260906013304 | 18 | 314 | 0.0 | 3.2 | 0.00 | 0.00 | 0.00 | 90 | 1021.4 |
| 20260906012804 | 18 | 315 | 1.6 | 3.2 | 0.00 | 0.00 | 0.00 | 90 | 1021.4 |
| 20260906012306 | 18 | 315 | 1.6 | 4.8 | 0.00 | 0.00 | 0.00 | 91 | 1021.4 |
| 20260906011804 | 18 | 315 | 1.6 | 4.8 | 0.00 | 0.00 | 0.00 | 90 | 1021.4 |
| 20260906011304 | 18 | 315 | 1.6 | 4.8 | 0.00 | 0.00 | 0.00 | 91 | 1021.3 |
| 20260906010804 | 18 | 316 | 0.0 | 3.2 | 0.00 | 0.00 | 0.00 | 90 | 1021.4 |
| 20260906010304 | 18 | 317 | 1.6 | 3.2 | 0.00 | 0.00 | 0.00 | 90 | 1021.3 |
| 20260906005804 | 18 | 318 | 1.6 | 4.8 | 0.00 | 0.00 | 0.00 | 89 | 1021.3 |
| 20260906005306 | 18 | 317 | 3.2 | 4.8 | 0.00 | 0.00 | 0.00 | 90 | 1021.1 |
| 20260906004804 | 18 | 317 | 0.0 | 3.2 | 0.00 | 0.00 | 0.00 | 90 | 1021.2 |
| 20260906004304 | 18 | 317 | 0.0 | 3.2 | 0.00 | 0.00 | 0.00 | 90 | 1021.2 |
| 20260906003304 | 18 | 318 | 0.0 | 3.2 | 0.00 | 0.00 | 0.00 | 90 | 1021.1 |
| 20260906002804 | 18 | 318 | 1.6 | 4.8 | 0.00 | 0.00 | 0.00 | 90 | 1021.1 |
| 20260906001803 | 18 | 318 | 1.6 | 4.8 | 0.00 | 0.00 | 0.00 | 89 | 1021.1 |
| 20260906001304 | 18 | 318 | 1.6 | 4.8 | 0.00 | 0.00 | 0.00 | 89 | 1021.1 |
| 20260906000804 | 18 | 317 | 0.0 | 1.6 | 0.00 | 0.00 | 0.00 | 89 | 1021.1 |
| 20260906000304 | 18 | 316 | 0.0 | 4.8 | 0.00 | 0.00 | 0.00 | 89 | 1021.1 |
| 20260905235804 | 18 | 317 | 1.6 | 4.8 | 0.00 | 0.00 | 0.00 | 89 | 1021.0 |
| 20260905234804 | 19 | 315 | 0.0 | 1.6 | 0.00 | 0.00 | 0.00 | 89 | 1020.9 |
| 20260905234304 | 19 | 313 | 1.6 | 1.6 | 0.00 | 0.00 | 0.00 | 89 | 1020.8 |
| 20260905233804 | 19 | 314 | 0.0 | 3.2 | 0.00 | 0.00 | 0.00 | 88 | 1020.9 |
| 20260905233303 | 19 | 314 | 1.6 | 3.2 | 0.00 | 0.00 | 0.00 | 88 | 1020.9 |
| 20260905232803 | 20 | 315 | 0.0 | 1.6 | 0.00 | 0.00 | 0.00 | 87 | 1020.9 |
| 20260905231804 | 20 | 319 | 0.0 | 1.6 | 0.00 | 0.00 | 0.00 | 87 | 1020.8 |
| 20260905231304 | 20 | 314 | 1.6 | 3.2 | 0.00 | 0.00 | 0.00 | 86 | 1020.8 |
| 20260905230804 | 20 | 313 | 0.0 | 3.2 | 0.00 | 0.00 | 0.00 | 86 | 1020.7 |
| 20260905230303 | 20 | 313 | 0.0 | 4.8 | 0.00 | 0.00 | 0.00 | 86 | 1020.7 |
| 20260905225817 | 20 | 313 | 0.0 | 4.8 | 0.00 | 0.00 | 0.00 | 86 | 1020.7 |
| 20260905224818 | 20 | 311 | 1.6 | 4.8 | 0.00 | 0.00 | 0.00 | 86 | 1020.5 |
| 20260905224317 | 20 | 311 | 0.0 | 4.8 | 0.00 | 0.00 | 0.00 | 86 | 1020.5 |
| 20260905223816 | 20 | 312 | 1.6 | 4.8 | 0.00 | 0.00 | 0.00 | 86 | 1020.4 |
| 20260905222316 | 20 | 268 | 1.6 | 3.2 | 0.00 | 0.00 | 0.00 | 86 | 1020.3 |
| 20260905221316 | 20 | 271 | 3.2 | 4.8 | 0.00 | 0.00 | 0.00 | 86 | 1020.3 |
| 20260905220824 | 21 | 272 | 0.0 | 3.2 | 0.00 | 0.00 | 0.00 | 86 | 1020.2 |
| 20260905220317 | 21 | 274 | 1.6 | 3.2 | 0.00 | 0.00 | 0.00 | 86 | 1020.2 |
| 20260905215816 | 21 | 274 | 1.6 | 3.2 | 0.00 | 0.00 | 0.00 | 86 | 1020.2 |
| 20260905215316 | 21 | 276 | 1.6 | 4.8 | 0.00 | 0.00 | 0.00 | 85 | 1020.2 |
| 20260905214316 | 21 | 278 | 1.6 | 3.2 | 0.00 | 0.00 | 0.00 | 84 | 1020.1 |
| 20260905213816 | 21 | 276 | 1.6 | 4.8 | 0.00 | 0.00 | 0.00 | 84 | 1020.1 |
| 20260905213317 | 21 | 276 | 1.6 | 4.8 | 0.00 | 0.00 | 0.00 | 83 | 1020.0 |
| 20260905212817 | 21 | 275 | 3.2 | 4.8 | 0.00 | 0.00 | 0.00 | 83 | 1020.1 |
| 20260905211817 | 21 | 336 | 3.2 | 4.8 | 0.00 | 0.00 | 0.00 | 83 | 1020.0 |
| 20260905211317 | 21 | 336 | 1.6 | 4.8 | 0.00 | 0.00 | 0.00 | 81 | 1020.0 |
| 20260905210816 | 21 | 336 | 1.6 | 4.8 | 0.00 | 0.00 | 0.00 | 81 | 1020.0 |
| 20260905210317 | 21 | 337 | 1.6 | 4.8 | 0.00 | 0.00 | 0.00 | 81 | 1020.0 |
| 20260905205816 | 21 | 336 | 1.6 | 4.8 | 0.00 | 0.00 | 0.00 | 81 | 1020.0 |
| 20260905204817 | 21 | 336 | 1.6 | 4.8 | 0.00 | 0.00 | 0.00 | 81 | 1019.9 |
| 20260905204316 | 21 | 336 | 1.6 | 4.8 | 0.00 | 0.00 | 0.00 | 82 | 1020.0 |
| 20260905203818 | 21 | 336 | 3.2 | 4.8 | 0.00 | 0.00 | 0.00 | 82 | 1019.9 |
| 20260905203316 | 21 | 336 | 1.6 | 4.8 | 0.00 | 0.00 | 0.00 | 81 | 1019.8 |
| 20260905202816 | 21 | 336 | 1.6 | 4.8 | 0.00 | 0.00 | 0.00 | 82 | 1019.8 |
| 20260905202317 | 21 | 336 | 1.6 | 4.8 | 0.00 | 0.00 | 0.00 | 81 | 1019.7 |
| 20260905201817 | 21 | 333 | 3.2 | 4.8 | 0.00 | 0.00 | 0.00 | 81 | 1019.7 |
| 20260905200816 | 21 | 332 | 1.6 | 4.8 | 0.00 | 0.00 | 0.00 | 82 | 1019.6 |
| 20260905200316 | 21 | 331 | 1.6 | 4.8 | 0.00 | 0.00 | 0.00 | 82 | 1019.6 |
| 20260905195816 | 21 | 331 | 3.2 | 4.8 | 0.00 | 0.00 | 0.00 | 82 | 1019.5 |
| 20260905195317 | 21 | 329 | 1.6 | 4.8 | 0.00 | 0.00 | 0.00 | 82 | 1019.4 |
| 20260905194816 | 21 | 328 | 1.6 | 4.8 | 0.00 | 0.00 | 0.00 | 81 | 1019.4 |
| 20260905194316 | 21 | 327 | 3.2 | 4.8 | 0.00 | 0.00 | 0.00 | 81 | 1019.3 |
| 20260905193816 | 21 | 327 | 1.6 | 4.8 | 0.00 | 0.00 | 0.00 | 82 | 1019.2 |
| 20260905192817 | 22 | 324 | 3.2 | 4.8 | 0.00 | 0.00 | 0.00 | 81 | 1019.1 |
| 20260905192316 | 22 | 323 | 1.6 | 4.8 | 0.00 | 0.00 | 0.00 | 80 | 1019.1 |
| 20260905191816 | 22 | 322 | 3.2 | 4.8 | 0.00 | 0.00 | 0.00 | 80 | 1018.9 |
| 20260905191316 | 22 | 333 | 4.8 | 4.8 | 0.00 | 0.00 | 0.00 | 80 | 1018.8 |
| 20260905190816 | 22 | 312 | 0.0 | 1.6 | 0.00 | 0.00 | 0.00 | 80 | 1018.8 |
| 20260905190316 | 22 | 312 | 0.0 | 1.6 | 0.00 | 0.00 | 0.00 | 79 | 1018.7 |
| 20260905185816 | 22 | 352 | 1.6 | 3.2 | 0.00 | 0.00 | 0.00 | 79 | 1018.8 |
| 20260905185316 | 22 | 290 | 1.6 | 4.8 | 0.00 | 0.00 | 0.00 | 79 | 1018.7 |
| 20260905184816 | 22 | 290 | 0.0 | 4.8 | 0.00 | 0.00 | 0.00 | 78 | 1018.8 |
| 20260905184316 | 23 | 288 | 3.2 | 4.8 | 0.00 | 0.00 | 0.00 | 78 | 1018.5 |
| 20260905183816 | 23 | 319 | 3.2 | 4.8 | 0.00 | 0.00 | 0.00 | 78 | 1018.4 |
| 20260905183316 | 23 | 323 | 1.6 | 4.8 | 0.00 | 0.00 | 0.00 | 78 | 1018.2 |
| 20260905182817 | 23 | 321 | 1.6 | 8.0 | 0.00 | 0.00 | 0.00 | 77 | 1018.2 |
| 20260905182316 | 23 | 322 | 3.2 | 8.0 | 0.00 | 0.00 | 0.00 | 76 | 1018.2 |
| 20260905181816 | 23 | 298 | 1.6 | 4.8 | 0.00 | 0.00 | 0.00 | 76 | 1018.1 |
| 20260905181316 | 24 | 295 | 3.2 | 4.8 | 0.00 | 0.00 | 0.00 | 76 | 1018.0 |
| 20260905180816 | 24 | 296 | 3.2 | 4.8 | 0.00 | 0.00 | 0.00 | 75 | 1018.0 |
| 20260905180316 | 24 | 282 | 1.6 | 9.7 | 0.00 | 0.00 | 0.00 | 74 | 1017.9 |
| 20260905175816 | 25 | 200 | 3.2 | 9.7 | 0.00 | 0.00 | 0.00 | 73 | 1017.9 |
| 20260905175316 | 24 | 191 | 3.2 | 9.7 | 0.00 | 0.00 | 0.00 | 72 | 1017.7 |
| 20260905174816 | 25 | 324 | 1.6 | 8.0 | 0.00 | 0.00 | 0.00 | 74 | 1017.6 |
| 20260905174316 | 25 | 324 | 3.2 | 8.0 | 0.00 | 0.00 | 0.00 | 72 | 1017.5 |
| 20260905173816 | 26 | 298 | 3.2 | 4.8 | 0.00 | 0.00 | 0.00 | 69 | 1017.5 |
| 20260905173316 | 26 | 167 | 3.2 | 11.3 | 0.00 | 0.00 | 0.00 | 67 | 1017.3 |
| 20260905172316 | 26 | 87 | 4.8 | 19.3 | 0.00 | 0.00 | 0.00 | 63 | 1017.3 |
| 20260905171816 | 27 | 139 | 9.7 | 19.3 | 0.00 | 0.00 | 0.00 | 62 | 1017.3 |
| 20260905171316 | 27 | 118 | 8.0 | 19.3 | 0.00 | 0.00 | 0.00 | 63 | 1017.1 |
| 20260905170316 | 27 | 137 | 12.9 | 27.4 | 0.00 | 0.00 | 0.00 | 62 | 1017.0 |
| 20260905165815 | 27 | 129 | 14.5 | 24.1 | 0.00 | 0.00 | 0.00 | 63 | 1016.9 |
| 20260905165316 | 27 | 130 | 12.9 | 24.1 | 0.00 | 0.00 | 0.00 | 63 | 1016.7 |
| 20260905164816 | 27 | 143 | 14.5 | 24.1 | 0.00 | 0.00 | 0.00 | 62 | 1016.6 |
| 20260905164317 | 27 | 169 | 11.3 | 24.1 | 0.00 | 0.00 | 0.00 | 60 | 1016.5 |
| 20260905163816 | 28 | 153 | 9.7 | 25.7 | 0.00 | 0.00 | 0.00 | 59 | 1016.3 |
| 20260905163316 | 28 | 133 | 14.5 | 25.7 | 0.00 | 0.00 | 0.00 | 58 | 1016.2 |
| 20260905162816 | 28 | 121 | 14.5 | 24.1 | 0.00 | 0.00 | 0.00 | 57 | 1016.2 |
| 20260905162316 | 28 | 160 | 14.5 | 24.1 | 0.00 | 0.00 | 0.00 | 57 | 1016.0 |
| 20260905161316 | 28 | 127 | 14.5 | 25.7 | 0.00 | 0.00 | 0.00 | 56 | 1015.9 |
| 20260905160316 | 29 | 131 | 12.9 | 25.7 | 0.00 | 0.00 | 0.00 | 54 | 1015.8 |
| 20260905155815 | 30 | 140 | 9.7 | 24.1 | 0.00 | 0.00 | 0.00 | 54 | 1015.7 |
| 20260905154815 | 30 | 124 | 9.7 | 22.5 | 0.00 | 0.00 | 0.00 | 53 | 1015.5 |
| 20260905154317 | 30 | 138 | 11.3 | 19.3 | 0.00 | 0.00 | 0.00 | 54 | 1015.5 |
| 20260905153816 | 30 | 79 | 1.6 | 4.8 | 0.00 | 0.00 | 0.00 | 53 | 1015.5 |
| 20260905153316 | 30 | 195 | 1.6 | 4.8 | 0.00 | 0.00 | 0.00 | 52 | 1015.4 |
| 20260905152815 | 30 | 209 | 1.6 | 4.8 | 0.00 | 0.00 | 0.00 | 52 | 1015.4 |
| 20260905152316 | 30 | 209 | 1.6 | 4.8 | 0.00 | 0.00 | 0.00 | 52 | 1015.5 |
| 20260905151316 | 30 | 187 | 1.6 | 8.0 | 0.00 | 0.00 | 0.00 | 49 | 1015.6 |
| 20260905150816 | 30 | 186 | 0.0 | 8.0 | 0.00 | 0.00 | 0.00 | 49 | 1015.5 |
| 20260905150316 | 30 | 186 | 4.8 | 8.0 | 0.00 | 0.00 | 0.00 | 50 | 1015.5 |
| 20260905145816 | 30 | 186 | 0.0 | 1.6 | 0.00 | 0.00 | 0.00 | 49 | 1015.5 |
| 20260905145316 | 30 | 186 | 0.0 | 3.2 | 0.00 | 0.00 | 0.00 | 49 | 1015.3 |
| 20260905144315 | 30 | 160 | 1.6 | 4.8 | 0.00 | 0.00 | 0.00 | 48 | 1015.3 |
| 20260905143816 | 30 | 160 | 3.2 | 8.0 | 0.00 | 0.00 | 0.00 | 48 | 1015.3 |
| 20260905143316 | 30 | 161 | 1.6 | 8.0 | 0.00 | 0.00 | 0.00 | 46 | 1015.1 |
| 20260905142816 | 30 | 161 | 4.8 | 8.0 | 0.00 | 0.00 | 0.00 | 47 | 1015.1 |
| 20260905142316 | 30 | 114 | 3.2 | 4.8 | 0.00 | 0.00 | 0.00 | 48 | 1015.2 |
| 20260905141816 | 30 | 228 | 1.6 | 4.8 | 0.00 | 0.00 | 0.00 | 46 | 1015.3 |
| 20260905141315 | 30 | 131 | 1.6 | 4.8 | 0.00 | 0.00 | 0.00 | 47 | 1015.4 |
| 20260905140816 | 30 | 130 | 3.2 | 9.7 | 0.00 | 0.00 | 0.00 | 46 | 1015.3 |
| 20260905135817 | 30 | 112 | 4.8 | 9.7 | 0.00 | 0.00 | 0.00 | 44 | 1015.3 |
| 20260905134816 | 30 | 164 | 8.0 | 9.7 | 0.00 | 0.00 | 0.00 | 46 | 1015.5 |
| 20260905133315 | 30 | 89 | 3.2 | 4.8 | 0.00 | 0.00 | 0.00 | 45 | 1015.4 |
| 20260905132816 | 30 | 119 | 3.2 | 11.3 | 0.00 | 0.00 | 0.00 | 46 | 1015.5 |
| 20260905132315 | 30 | 111 | 3.2 | 11.3 | 0.00 | 0.00 | 0.00 | 46 | 1015.4 |
| 20260905131815 | 30 | 133 | 4.8 | 11.3 | 0.00 | 0.00 | 0.00 | 45 | 1015.4 |
| 20260905131315 | 31 | 94 | 3.2 | 4.8 | 0.00 | 0.00 | 0.00 | 46 | 1015.4 |
| 20260905130315 | 31 | 109 | 3.2 | 11.3 | 0.00 | 0.00 | 0.00 | 44 | 1015.4 |
| 20260905125316 | 31 | 157 | 3.2 | 4.8 | 0.00 | 0.00 | 0.00 | 47 | 1015.5 |
| 20260905124816 | 30 | 130 | 1.6 | 9.7 | 0.00 | 0.00 | 0.00 | 49 | 1015.6 |
| 20260905124315 | 30 | 126 | 4.8 | 9.7 | 0.00 | 0.00 | 0.00 | 50 | 1015.7 |
| 20260905123815 | 30 | 109 | 1.6 | 8.0 | 0.00 | 0.00 | 0.00 | 51 | 1015.7 |
| 20260905123316 | 30 | 119 | 4.8 | 8.0 | 0.00 | 0.00 | 0.00 | 51 | 1015.8 |
| 20260905122315 | 30 | 110 | 1.6 | 4.8 | 0.00 | 0.00 | 0.00 | 53 | 1015.8 |
| 20260905121316 | 30 | 109 | 4.8 | 9.7 | 0.00 | 0.00 | 0.00 | 53 | 1015.9 |
| 20260905120815 | 30 | 150 | 1.6 | 3.2 | 0.00 | 0.00 | 0.00 | 56 | 1016.0 |
| 20260905120315 | 30 | 146 | 1.6 | 4.8 | 0.00 | 0.00 | 0.00 | 55 | 1016.0 |
| 20260905115816 | 30 | 144 | 3.2 | 4.8 | 0.00 | 0.00 | 0.00 | 58 | 1016.1 |
| 20260905115315 | 29 | 144 | 3.2 | 4.8 | 0.00 | 0.00 | 0.00 | 55 | 1016.0 |
| 20260905114316 | 29 | 144 | 1.6 | 4.8 | 0.00 | 0.00 | 0.00 | 60 | 1016.1 |
| 20260905113816 | 29 | 95 | 3.2 | 4.8 | 0.00 | 0.00 | 0.00 | 61 | 1016.1 |
| 20260905113316 | 29 | 94 | 3.2 | 4.8 | 0.00 | 0.00 | 0.00 | 61 | 1016.2 |
| 20260905112815 | 28 | 75 | 1.6 | 4.8 | 0.00 | 0.00 | 0.00 | 62 | 1016.2 |
| 20260905112316 | 28 | 68 | 3.2 | 4.8 | 0.00 | 0.00 | 0.00 | 62 | 1016.2 |
| 20260905111816 | 28 | 66 | 3.2 | 4.8 | 0.00 | 0.00 | 0.00 | 62 | 1016.2 |
| 20260905111316 | 28 | 94 | 1.6 | 4.8 | 0.00 | 0.00 | 0.00 | 63 | 1016.3 |
| 20260905110816 | 28 | 94 | 1.6 | 4.8 | 0.00 | 0.00 | 0.00 | 64 | 1016.2 |
| 20260905110316 | 28 | 84 | 3.2 | 4.8 | 0.00 | 0.00 | 0.00 | 65 | 1016.2 |
| 20260905105315 | 28 | 84 | 1.6 | 4.8 | 0.00 | 0.00 | 0.00 | 67 | 1016.3 |
| 20260905104815 | 27 | 167 | 3.2 | 11.3 | 0.00 | 0.00 | 0.00 | 68 | 1016.3 |
| 20260905104316 | 27 | 166 | 3.2 | 11.3 | 0.00 | 0.00 | 0.00 | 69 | 1016.4 |
| 20260905103815 | 27 | 162 | 4.8 | 11.3 | 0.00 | 0.00 | 0.00 | 69 | 1016.4 |
| 20260905103315 | 27 | 94 | 3.2 | 4.8 | 0.00 | 0.00 | 0.00 | 70 | 1016.5 |
| 20260905102815 | 27 | 114 | 3.2 | 4.8 | 0.00 | 0.00 | 0.00 | 72 | 1016.5 |
| 20260905101815 | 26 | 115 | 1.6 | 4.8 | 0.00 | 0.00 | 0.00 | 73 | 1016.6 |
| 20260905101315 | 26 | 116 | 1.6 | 4.8 | 0.00 | 0.00 | 0.00 | 74 | 1016.6 |
| 20260905100816 | 26 | 115 | 1.6 | 4.8 | 0.00 | 0.00 | 0.00 | 75 | 1016.5 |
| 20260905100315 | 25 | 113 | 1.6 | 4.8 | 0.00 | 0.00 | 0.00 | 75 | 1016.5 |
| 20260905095815 | 25 | 113 | 1.6 | 4.8 | 0.00 | 0.00 | 0.00 | 77 | 1016.6 |
| 20260905095315 | 25 | 113 | 3.2 | 4.8 | 0.00 | 0.00 | 0.00 | 76 | 1016.7 |
| 20260905094815 | 25 | 113 | 3.2 | 4.8 | 0.00 | 0.00 | 0.00 | 76 | 1016.8 |
| 20260905093816 | 25 | 113 | 3.2 | 4.8 | 0.00 | 0.00 | 0.00 | 76 | 1016.7 |
| 20260905093315 | 24 | 105 | 1.6 | 4.8 | 0.00 | 0.00 | 0.00 | 77 | 1016.6 |
| 20260905092315 | 24 | 105 | 3.2 | 4.8 | 0.00 | 0.00 | 0.00 | 79 | 1016.7 |
| 20260905091815 | 24 | 105 | 1.6 | 4.8 | 0.00 | 0.00 | 0.00 | 78 | 1016.6 |
| 20260905091315 | 24 | 105 | 1.6 | 4.8 | 0.00 | 0.00 | 0.00 | 78 | 1016.7 |
| 20260905085314 | 23 | 105 | 1.6 | 3.2 | 0.00 | 0.00 | 0.00 | 80 | 1016.8 |
| 20260905084815 | 23 | 105 | 0.0 | 3.2 | 0.00 | 0.00 | 0.00 | 79 | 1016.8 |
| 20260905084314 | 23 | 105 | 1.6 | 3.2 | 0.00 | 0.00 | 0.00 | 79 | 1016.7 |
| 20260905083315 | 23 | 105 | 1.6 | 3.2 | 0.00 | 0.00 | 0.00 | 79 | 1016.8 |
| 20260905082315 | 23 | 105 | 1.6 | 3.2 | 0.00 | 0.00 | 0.00 | 79 | 1016.8 |
| 20260905081815 | 23 | 105 | 1.6 | 4.8 | 0.00 | 0.00 | 0.00 | 79 | 1016.7 |
| 20260905081315 | 23 | 105 | 1.6 | 4.8 | 0.00 | 0.00 | 0.00 | 81 | 1016.6 |
| 20260905080815 | 22 | 105 | 1.6 | 4.8 | 0.00 | 0.00 | 0.00 | 81 | 1016.4 |
| 20260905075815 | 22 | 105 | 1.6 | 3.2 | 0.00 | 0.00 | 0.00 | 81 | 1016.5 |
| 20260905075315 | 22 | 105 | 1.6 | 3.2 | 0.00 | 0.00 | 0.00 | 81 | 1016.5 |
| 20260905074816 | 22 | 104 | 1.6 | 3.2 | 0.00 | 0.00 | 0.00 | 81 | 1016.5 |
| 20260905074315 | 22 | 104 | 1.6 | 4.8 | 0.00 | 0.00 | 0.00 | 81 | 1016.6 |
| 20260905073815 | 22 | 105 | 1.6 | 4.8 | 0.00 | 0.00 | 0.00 | 82 | 1016.6 |
| 20260905073315 | 22 | 105 | 3.2 | 4.8 | 0.00 | 0.00 | 0.00 | 81 | 1016.6 |
| 20260905072815 | 22 | 82 | 1.6 | 4.8 | 0.00 | 0.00 | 0.00 | 84 | 1016.6 |
| 20260905071315 | 21 | 82 | 1.6 | 3.2 | 0.00 | 0.00 | 0.00 | 87 | 1016.6 |
| 20260905070315 | 20 | 82 | 1.6 | 3.2 | 0.00 | 0.00 | 0.00 | 90 | 1016.5 |
| 20260905065314 | 19 | 95 | 0.0 | 4.8 | 0.00 | 0.00 | 0.00 | 91 | 1016.4 |
| 20260905064815 | 18 | 98 | 1.6 | 4.8 | 0.00 | 0.00 | 0.00 | 92 | 1016.4 |